Weather History for Millington, TN

Change the Weather History Date:

Wednesday, March 27, 2013

  Actual Average Record
Temperature  
Mean Temperature 42 °F -  
Max Temperature 57 °F 64 °F 84 °F (2012)
Min Temperature 26 °F 46 °F 26 °F (2013)
Degree Days  
Heating Degree Days 24    
Moisture  
Dew Point 28 °F    
Average Humidity 68    
Maximum Humidity 100    
Minimum Humidity 36    
Precipitation  
Precipitation 0.00 in - - ()
Sea Level Pressure  
Sea Level Pressure 30.36 in    
Wind  
Wind Speed 1 mph (WSW)    
Max Wind Speed 9 mph    
Max Gust Speed -    
Visibility 10 miles    
Events      
Averages and records for this station are not official NWS values.
T = Trace of Precipitation, MM = Missing Value Source: NWS Daily Summary

Daily Weather History Graph

Daily Weather History Graph

Search for Another Location

Airport:

Trip Planner

Search our weather history database for the weather conditions in past years. The results will help you decide how hot, cold, wet, or windy it might be!

Date:

Astronomy

Mar. 27, 2013 Rise Set
Actual Time 6:52 AM CDT 7:17 PM CDT
Civil Twilight 6:27 AM CDT 7:42 PM CDT
Nautical Twilight 5:57 AM CDT 8:12 PM CDT
Astronomical Twilight 5:27 AM CDT 8:43 PM CDT
Moon 7:57 PM CDT (3/27) 6:45 AM CDT (3/27)
Length of Visible Light 13h 15m
Length of Day
12h 24m
Full, 100% of the Moon is Illuminated
Mar 27
Full
Apr 2
Last Quarter
Apr 10
New
Apr 18
First Quarter
Apr 25
Full

Hourly Weather History & Observations

Time (CDT) Temp. Windchill Dew Point Humidity Pressure Visibility Wind Dir Wind Speed Gust Speed Precip Events Conditions
12:55 AM 30.2 °F - 24.8 °F 80% 30.35 in 10.0 mi Calm Calm - N/A   Clear
1:55 AM 30.2 °F - 26.6 °F 86% 30.35 in 10.0 mi Calm Calm - N/A   Clear
2:55 AM 30.2 °F - 26.6 °F 86% 30.35 in 10.0 mi Calm Calm - N/A   Clear
3:15 AM 30.2 °F - 26.6 °F 86% 30.35 in 10.0 mi Calm Calm - N/A   Clear
3:35 AM 30.2 °F - 26.6 °F 86% 30.36 in 10.0 mi Calm Calm - N/A   Clear
3:55 AM 30.2 °F - 26.6 °F 86% 30.34 in 10.0 mi Calm Calm - N/A   Clear
4:15 AM 28.4 °F - 26.6 °F 93% 30.36 in 10.0 mi Calm Calm - N/A   Clear
4:35 AM 28.4 °F - 26.6 °F 93% 30.37 in 10.0 mi Calm Calm - N/A   Clear
4:55 AM 26.6 °F - 24.8 °F 93% 30.36 in 10.0 mi Calm Calm - N/A   Clear
5:15 AM 26.6 °F - 24.8 °F 93% 30.36 in 10.0 mi Calm Calm - N/A   Clear
5:35 AM 26.6 °F - 24.8 °F 93% 30.36 in 10.0 mi Calm Calm - N/A   Clear
5:55 AM 26.6 °F - 24.8 °F 93% 30.37 in 10.0 mi Calm Calm - N/A   Clear
6:55 AM 26.6 °F - 26.6 °F 100% 30.39 in 10.0 mi Calm Calm - N/A   Clear
7:55 AM 28.4 °F - 26.6 °F 93% 30.39 in 10.0 mi Calm Calm - N/A   Partly Cloudy
8:55 AM 39.2 °F 37.0 °F 30.2 °F 70% 30.41 in 10.0 mi Variable 3.5 mph - N/A   Partly Cloudy
9:55 AM 44.6 °F 40.2 °F 30.2 °F 57% 30.42 in 10.0 mi WSW 8.1 mph - N/A   Partly Cloudy
10:55 AM 48.2 °F - 30.2 °F 50% 30.42 in 10.0 mi SW 9.2 mph - N/A   Partly Cloudy
11:55 AM 50.0 °F - 28.4 °F 43% 30.41 in 10.0 mi SSW 5.8 mph - N/A   Partly Cloudy
12:55 PM 53.6 °F - 28.4 °F 38% 30.39 in 10.0 mi West 5.8 mph - N/A   Scattered Clouds
1:55 PM 55.4 °F - 32.0 °F 41% 30.38 in 10.0 mi West 6.9 mph - N/A   Mostly Cloudy
2:55 PM 55.4 °F - 28.4 °F 36% 30.35 in 10.0 mi SW 6.9 mph - N/A   Mostly Cloudy
3:55 PM 57.2 °F - 30.2 °F 36% 30.32 in 10.0 mi SW 6.9 mph - N/A   Mostly Cloudy
4:55 PM 55.4 °F - 30.2 °F 38% 30.32 in 10.0 mi West 3.5 mph - N/A   Scattered Clouds
5:55 PM 55.4 °F - 28.4 °F 36% 30.31 in 10.0 mi Calm Calm - N/A   Scattered Clouds
6:55 PM 53.6 °F - 30.2 °F 41% 30.31 in 10.0 mi Calm Calm - N/A   Mostly Cloudy
7:55 PM 48.2 °F - 30.2 °F 50% 30.31 in 10.0 mi Calm Calm - N/A   Mostly Cloudy
8:55 PM 48.2 °F - 30.2 °F 50% 30.31 in 10.0 mi Calm Calm - N/A   Mostly Cloudy
9:55 PM 44.6 °F - 33.8 °F 66% 30.31 in 10.0 mi Calm Calm - N/A   Mostly Cloudy
10:55 PM 42.8 °F - 30.2 °F 61% 30.31 in 10.0 mi Calm Calm - N/A   Mostly Cloudy
11:55 PM 42.8 °F - 33.8 °F 70% 30.32 in 10.0 mi Calm Calm - N/A   Scattered Clouds